Wind_Speed
9 11 13 15 17 18 20 22 23 24 24 24 24 24 23 22 22 22 22 21 20 20 20 18 16 14 13 11 10 10 11 11 11 11 11 11 10 10 10 10 10 10 10 10 10 11 11 11 11 11 11 11 11 11 11 11 11 11 11 11 11 11 11 11 12 12 12 12 13 13 13 13 13 13 13 13 14 14 14 14 14 14 14 14 15 15
8 9 11 13 15 17 18 20 22 23 24 23 23 24 24 23 22 22 22 21 21 20 18 16 13 12 11 10 10 10 10 11 11 11 11 10 10 10 10 10 10 10 10 10 10 11 11 11 11 11 11 11 11 11 11 10 10 10 10 10 11 11 11 11 12 12 12 13 13 13 13 13 13 13 14 14 14 14 14 14 14 14 15 15 15 15
8 9 11 12 13 15 17 18 20 21 22 22 22 22 22 21 21 21 21 20 19 17 14 12 10 10 9 9 8 8 9 10 11 11 11 10 10 9 9 9 10 10 10 10 10 10 10 10 10 10 10 10 10 10 10 10 10 10 10 10 11 11 11 12 12 12 13 13 13 13 13 14 14 14 14 14 14 14 14 14 14 15 15 15 15 16
8 10 11 11 12 14 15 17 18 18 19 19 19 19 19 19 19 18 18 16 14 12 10 9 8 8 8 8 7 7 8 10 11 11 10 10 9 9 9 9 10 10 10 10 10 10 10 10 10 10 9 9 9 9 9 10 10 10 10 10 11 11 11 12 12 13 13 13 13 13 14 14 14 14 14 14 14 14 15 15 15 15 15 15 16 16
9 9 10 11 11 12 14 15 15 15 16 16 16 15 15 15 14 13 12 11 9 8 8 8 7 7 8 8 8 8 9 10 10 11 10 9 9 9 9 10 10 11 11 11 10 10 10 10 10 9 9 9 9 9 9 10 10 10 10 10 10 11 11 12 12 12 13 13 13 13 13 14 14 14 14 14 14 15 15 15 15 15 15 16 16 16
8 8 9 10 10 11 11 11 11 11 12 12 11 11 10 10 10 9 8 8 8 8 7 7 7 6 7 7 8 9 9 9 10 10 9 9 8 9 10 11 11 11 11 10 10 10 10 10 9 9 9 9 9 9 9 9 9 10 10 10 11 11 11 12 12 12 13 13 13 13 13 14 14 14 14 14 15 15 15 15 15 15 16 16 16 16
7 8 8 9 9 9 8 8 8 8 8 8 8 7 7 7 7 7 7 7 7 7 6 6 5 5 6 7 8 9 9 10 10 10 10 10 10 11 11 11 11 11 10 10 9 9 9 9 9 9 9 9 9 9 9 9 10 10 10 11 11 11 12 12 12 12 13 13 13 13 13 14 14 14 14 14 14 15 15 15 15 16 16 16 16 16
7 7 7 7 7 6 6 6 5 6 6 6 5 5 5 5 5 6 6 6 6 6 6 5 5 6 7 8 9 9 9 10 11 11 11 12 13 13 13 12 10 9 9 9 9 8 8 8 8 8 8 8 9 9 9 10 10 11 11 11 11 12 12 12 12 12 13 13 13 13 13 13 13 14 14 14 14 14 15 15 15 15 16 16 16 16
8 7 7 6 5 5 5 5 5 5 4 4 4 4 4 5 5 5 6 6 7 7 7 7 8 8 8 8 8 9 9 10 11 11 11 12 13 14 13 11 9 8 8 8 8 8 8 8 8 8 9 9 9 10 10 11 11 11 11 12 12 12 12 12 12 12 12 12 12 12 12 13 13 13 13 13 14 14 14 15 15 15 16 16 16 17
8 7 6 5 5 4 4 4 4 4 4 4 4 5 5 6 7 8 9 9 8 8 8 9 9 9 8 8 8 9 10 10 11 11 12 13 13 12 11 9 8 8 7 7 7 8 8 8 9 9 10 10 11 11 11 11 12 12 12 12 12 11 12 12 12 12 12 12 12 12 12 12 12 13 13 13 14 14 14 15 15 16 16 16 17 17
6 6 5 5 4 4 4 4 4 4 4 5 6 7 8 9 10 11 12 11 10 9 9 9 9 8 7 7 8 9 10 11 12 13 13 14 13 12 10 9 9 9 9 9 9 10 10 11 11 11 12 12 12 12 12 12 12 12 12 11 11 11 11 11 11 11 11 11 11 12 12 12 13 13 13 14 14 14 15 15 16 16 16 17 17 18
4 4 4 4 4 4 4 4 4 5 6 7 8 10 12 11 12 13 14 13 11 9 8 7 7 7 7 7 8 9 10 12 13 13 14 14 13 11 10 10 10 10 10 11 11 12 12 13 14 14 13 13 13 13 13 13 12 12 11 11 10 10 10 10 11 11 11 11 12 12 12 13 13 14 14 15 15 15 16 16 17 17 17 18 18 18
2 2 2 3 4 4 5 5 5 6 7 8 10 11 13 12 12 13 13 11 9 7 6 6 6 6 7 7 8 9 10 12 13 13 13 13 12 11 10 10 11 11 11 12 12 13 13 13 13 13 13 12 12 12 12 11 11 10 9 9 9 9 10 10 10 11 11 12 12 13 13 14 14 15 15 16 16 16 17 17 17 18 18 18 19 19
1 1 2 3 4 5 5 6 7 7 8 9 9 9 9 9 9 9 9 8 6 6 5 6 6 6 7 7 8 9 10 11 12 13 13 13 13 13 12 12 12 12 12 13 12 12 10 10 9 9 9 9 9 9 9 9 9 8 8 8 9 9 10 11 11 12 12 13 13 14 14 14 15 15 16 16 17 17 17 18 18 18 19 19 19 20
1 2 3 4 5 5 6 6 7 7 6 6 6 5 5 4 4 4 4 4 4 5 5 6 6 7 7 7 7 9 10 11 12 13 14 15 15 14 14 14 14 14 13 13 12 10 8 7 7 6 6 7 7 7 7 7 7 7 8 9 10 10 11 12 12 13 13 13 14 14 14 15 16 16 16 17 17 18 18 18 18 19 19 19 20 20
3 4 5 5 6 6 5 4 3 3 2 2 3 3 3 3 3 4 4 4 4 5 6 6 7 7 7 6 6 8 9 11 12 13 15 16 17 16 15 15 15 15 14 13 12 10 8 7 6 6 5 6 6 6 7 7 7 8 9 10 11 11 12 12 13 13 13 14 14 14 15 15 16 17 17 17 18 18 18 19 19 19 20 20 20 21
4 5 6 6 5 4 2 1 1 1 1 1 2 3 3 4 4 5 5 5 6 6 6 6 6 6 6 7 7 7 9 11 13 14 16 17 18 17 16 15 16 16 15 14 12 10 9 8 7 6 6 6 6 7 7 8 8 9 10 11 12 12 12 13 13 13 14 14 15 15 15 16 16 17 17 18 18 19 19 19 20 20 20 20 21 21
3 3 3 2 2 1 0 0 0 1 2 2 3 3 4 4 5 5 5 6 6 6 6 6 6 5 6 7 7 8 10 12 13 15 17 18 18 18 16 16 16 16 17 15 13 11 11 10 9 9 8 8 8 8 9 9 10 10 11 12 12 13 13 13 13 14 14 14 15 15 16 16 16 17 17 18 18 18 19 19 19 20 20 20 21 21
1 1 1 1 1 1 1 1 2 2 2 3 3 4 4 5 5 5 6 6 6 6 6 6 6 6 7 9 9 10 11 12 14 16 17 18 18 18 16 15 16 17 17 16 15 13 12 12 12 11 11 11 11 11 11 10 11 11 12 12 13 13 13 13 14 14 14 14 15 15 15 15 16 16 16 17 17 18 18 18 19 19 19 20 20 21
2 2 2 2 2 2 2 3 3 4 4 5 5 5 5 6 6 6 7 7 7 8 8 7 7 8 9 10 11 12 12 13 14 15 16 17 17 17 16 15 15 16 17 17 15 14 14 14 14 14 13 13 12 12 12 12 11 12 12 13 13 13 13 14 14 14 14 14 14 14 14 15 15 15 16 16 17 17 17 18 18 18 19 19 20 20
3 3 3 4 4 3 4 4 5 5 6 6 7 7 7 7 7 7 8 8 9 9 9 9 9 10 11 12 13 14 15 14 14 15 15 16 16 16 15 14 15 16 17 17 16 16 16 16 16 15 15 14 14 13 13 12 12 13 13 13 13 13 13 13 13 13 13 13 13 14 14 15 15 16 16 16 17 17 17 18 18 19 19 19 20 20
4 4 4 5 5 5 5 6 6 7 8 8 8 8 8 8 8 9 9 10 10 10 10 10 11 12 14 15 16 16 15 14 13 13 14 14 15 16 15 14 15 16 17 17 17 18 18 18 17 16 15 15 14 14 13 12 12 13 13 13 13 13 13 13 13 13 13 13 14 14 15 15 15 16 16 16 17 17 17 18 18 18 19 19 20 20
4 4 5 5 6 6 7 7 8 8 9 9 9 9 9 9 9 10 10 9 9 10 11 12 13 14 15 15 15 14 13 12 12 12 11 10 13 15 15 14 15 16 17 18 19 20 20 20 19 17 16 15 14 13 12 12 12 12 13 13 13 13 13 12 12 12 13 14 14 15 15 15 15 15 15 15 16 16 16 17 17 18 18 18 19 19
4 4 5 6 6 7 8 8 8 9 9 9 9 10 10 10 10 10 10 9 10 11 11 12 13 14 14 14 12 11 11 11 11 11 9 9 11 14 15 15 15 17 18 19 20 20 21 22 21 19 18 16 14 12 10 10 11 12 12 12 12 12 12 12 12 13 14 15 15 15 15 15 15 14 14 15 15 15 16 16 17 17 17 18 18 19
4 5 5 6 7 7 7 8 8 8 9 9 9 10 10 10 10 10 10 11 11 12 12 13 13 13 13 12 11 11 11 11 11 10 9 9 12 14 14 15 15 17 18 20 20 21 22 23 23 21 18 15 11 9 8 8 9 10 11 11 11 11 11 12 14 15 16 16 16 15 14 14 14 14 14 14 15 15 16 16 16 17 17 18 18 19
4 5 5 6 6 7 7 7 8 8 9 9 10 10 11 11 11 11 11 11 11 11 12 12 12 12 12 12 11 11 11 11 11 10 10 10 12 14 15 15 15 16 18 20 21 22 23 24 24 21 16 12 8 7 6 7 8 9 9 9 10 11 13 15 16 17 16 15 15 14 14 14 14 14 14 15 15 15 15 16 17 17 18 18 19 19
4 5 5 6 7 7 8 8 8 9 9 9 10 10 11 12 11 11 11 11 10 10 10 10 10 11 11 11 11 11 12 12 12 12 12 12 12 13 14 14 14 15 18 20 21 22 22 22 21 18 12 8 5 5 5 6 7 8 9 10 11 13 15 17 17 16 15 14 13 14 14 14 14 15 15 15 15 15 16 16 17 17 18 18 19 19
7 8 9 9 10 11 11 12 12 11 11 10 10 10 10 11 12 11 11 11 10 10 10 9 9 9 9 10 11 13 14 14 14 14 14 13 11 11 13 12 13 15 17 19 22 22 20 18 16 13 8 5 4 4 5 6 8 9 11 13 15 16 17 17 16 15 14 13 13 14 14 14 15 15 15 15 15 16 16 16 17 17 17 18 18 19
11 12 12 13 14 15 15 15 15 14 13 12 11 10 10 11 12 12 12 12 11 10 10 10 10 9 10 11 13 14 15 14 13 13 12 11 10 10 11 11 12 14 16 18 20 19 16 14 11 8 5 4 5 6 7 8 10 12 14 16 17 17 16 15 14 14 13 14 14 15 15 15 15 16 16 16 16 16 16 16 16 17 17 17 18 19
14 15 15 16 17 17 17 16 15 13 12 11 10 10 10 10 12 12 12 12 11 11 11 11 11 11 11 11 11 11 11 11 10 8 9 8 8 9 10 11 13 14 15 15 13 12 12 11 8 5 4 5 7 8 10 12 14 16 17 17 16 15 14 14 14 14 14 15 15 15 16 16 16 16 16 16 16 16 16 16 16 16 17 17 18 19
16 17 18 18 18 18 16 15 12 11 10 9 9 9 9 10 11 12 12 12 12 12 12 12 11 11 10 9 6 4 5 8 7 6 7 7 8 10 11 12 13 13 13 11 8 6 7 8 6 4 5 8 11 14 16 17 17 17 16 15 15 14 14 14 15 15 16 16 16 16 16 17 17 16 16 16 16 16 16 16 16 16 17 17 18 19
18 19 19 20 19 18 16 13 11 9 8 7 7 7 8 9 10 10 11 11 11 12 13 13 13 12 12 10 8 7 8 9 9 8 9 9 10 12 13 12 12 13 12 10 8 6 3 5 8 10 12 14 17 18 18 17 16 15 15 15 15 15 15 15 16 16 17 18 18 18 17 17 17 16 16 16 16 16 16 16 16 16 16 17 18 19
19 20 20 20 20 18 15 12 10 8 7 7 7 7 7 7 8 9 9 10 10 11 12 12 13 13 13 13 13 13 13 13 11 11 11 11 12 12 12 12 12 12 12 12 12 11 9 11 14 17 18 18 18 17 16 16 15 14 14 15 16 17 17 17 18 18 19 19 19 19 18 17 17 17 17 17 17 17 16 16 15 15 15 17 18 19
19 20 21 20 19 17 13 10 8 7 6 6 6 6 6 6 6 7 8 8 9 10 11 11 12 12 12 13 13 14 15 14 12 10 11 12 12 12 13 13 13 13 13 12 12 12 13 15 16 17 18 18 18 16 15 15 15 14 14 15 17 18 19 19 20 20 20 20 20 20 19 18 18 18 18 18 18 17 17 16 15 15 16 17 18 19
20 21 21 19 17 14 11 8 6 5 5 5 5 5 5 5 5 6 7 7 8 9 10 11 12 12 13 13 13 14 15 14 12 11 11 12 13 13 14 14 13 12 12 12 11 11 12 14 16 16 17 18 19 18 16 15 14 15 16 17 18 19 20 20 20 20 20 20 20 20 20 19 19 20 20 19 19 18 17 17 16 17 17 18 18 19
21 21 20 17 14 11 9 7 6 5 5 5 5 5 5 5 5 5 6 7 8 9 10 11 12 13 14 15 15 16 17 17 16 15 14 15 15 15 14 15 14 13 12 12 12 11 12 13 15 16 16 17 17 18 17 16 16 17 18 19 20 20 21 20 20 20 20 20 20 20 20 20 21 21 21 21 20 19 18 18 18 19 19 19 19 19
20 19 17 14 11 9 8 7 6 5 5 6 7 7 7 7 7 7 8 9 10 10 11 12 13 14 15 17 17 18 19 19 18 17 17 17 17 17 16 16 16 14 13 12 12 12 12 13 14 15 15 15 15 16 17 19 19 19 20 20 20 21 21 20 19 19 19 20 20 21 21 21 21 22 22 21 20 20 20 21 21 21 21 20 20 19
17 15 13 11 9 8 8 8 7 6 7 7 8 9 9 9 10 10 10 11 12 13 14 14 15 16 16 17 17 18 18 18 17 16 16 16 16 17 17 17 16 15 14 13 13 13 13 13 12 12 13 14 16 17 18 19 20 20 21 21 21 20 20 19 18 18 18 19 20 21 21 21 21 22 22 22 22 23 23 23 23 22 22 21 21 21
13 11 10 9 8 8 8 7 8 7 8 8 9 10 10 11 12 12 13 14 15 15 15 15 15 15 15 16 16 16 16 15 15 14 14 13 14 14 16 16 16 15 15 15 15 15 14 14 13 12 13 14 16 18 18 18 19 20 21 22 21 20 19 17 17 17 18 19 21 21 21 21 21 22 22 23 23 23 24 24 24 23 23 23 24 24
10 9 8 8 7 7 7 7 8 8 8 9 10 11 11 12 13 14 15 15 15 14 13 13 13 13 14 14 14 14 14 14 14 14 13 13 13 13 14 15 16 16 16 16 16 16 16 15 15 16 16 15 16 18 18 19 19 19 19 19 19 19 19 18 18 19 19 19 20 20 21 21 22 22 23 23 23 23 24 24 24 24 24 24 24 25
9 8 8 7 7 7 8 8 8 7 8 9 10 11 12 13 14 15 14 13 12 10 10 10 11 12 13 13 13 13 13 13 13 13 13 13 13 13 13 14 15 16 16 16 16 16 16 16 17 17 17 17 18 19 19 19 19 18 18 18 19 21 21 20 19 19 18 18 19 19 20 21 22 22 23 23 23 24 24 24 25 25 25 24 24 24
9 8 8 8 8 9 9 8 7 8 9 10 11 11 12 13 13 14 13 13 12 11 11 12 13 14 15 15 14 13 13 12 12 12 12 12 12 12 13 13 14 15 15 16 16 17 17 17 17 17 17 17 18 18 19 20 20 19 18 19 20 22 22 20 18 16 17 18 19 20 21 22 23 24 24 24 24 25 25 25 25 25 24 24 24 24
9 9 9 9 10 10 9 8 8 9 9 10 11 12 12 12 12 12 12 13 13 13 13 13 14 15 15 15 14 14 13 12 11 11 11 11 11 12 12 12 13 13 14 15 16 16 16 17 17 18 18 18 18 19 20 20 20 20 19 19 19 19 18 19 18 18 18 19 20 21 22 23 23 24 25 25 25 25 25 25 25 24 24 24 24 24
10 10 10 10 10 9 9 9 9 9 10 11 11 12 12 11 11 11 12 13 13 13 13 14 14 15 15 14 14 14 13 12 11 11 11 11 11 11 11 11 12 12 13 15 16 16 16 16 17 18 18 18 18 19 20 21 21 20 20 19 19 19 19 20 20 21 21 21 21 21 22 23 24 25 25 26 25 25 25 24 24 24 24 24 24 24
10 10 10 9 9 9 9 9 9 10 10 11 12 12 11 11 11 11 12 13 13 14 14 14 14 13 13 13 13 13 13 13 13 12 11 11 10 10 10 10 11 11 12 14 16 17 17 17 17 17 17 17 18 19 20 21 21 21 21 20 19 19 21 21 21 21 21 21 22 22 23 24 24 25 25 25 24 24 23 23 23 24 24 23 23 23
10 10 10 9 9 9 9 10 10 11 11 12 12 12 12 11 11 12 12 13 14 14 14 14 13 12 12 13 13 14 14 14 14 13 13 12 11 10 10 10 11 11 13 14 16 17 18 19 19 19 18 18 19 20 20 20 20 21 21 21 20 20 21 21 21 21 21 21 22 23 24 24 24 24 23 23 24 23 23 22 22 22 22 22 22 22
9 9 9 9 10 10 10 10 11 11 12 12 12 12 12 12 12 12 13 13 14 14 14 13 12 12 13 13 14 14 14 14 14 14 14 13 12 12 11 11 11 12 13 14 16 17 19 20 21 21 20 20 20 21 21 20 20 20 20 20 20 20 20 21 21 21 21 22 23 24 25 24 23 23 23 23 23 23 22 21 21 21 20 20 20 20
9 9 10 10 10 11 11 11 11 12 12 12 12 12 12 12 12 12 12 13 13 13 13 13 13 13 14 14 14 14 14 14 14 14 14 14 14 13 13 12 13 13 14 15 17 18 20 21 22 22 22 22 21 21 21 21 20 20 20 20 20 20 21 21 21 21 21 22 23 24 24 23 22 22 22 23 23 23 22 21 20 19 19 19 20 21
9 9 10 10 11 11 11 12 12 12 12 12 12 12 12 11 11 11 12 13 13 14 14 13 13 14 14 14 14 14 14 15 15 15 15 15 15 14 14 14 14 15 15 16 17 17 19 19 20 21 21 22 22 22 22 21 21 20 20 20 20 20 20 21 21 21 20 21 22 23 23 22 22 22 21 21 22 22 22 22 22 21 21 21 22 23
9 10 10 10 11 11 11 12 12 12 12 12 12 12 12 12 11 11 12 13 13 13 14 14 14 14 14 14 14 14 14 15 15 15 15 15 14 14 14 14 15 15 15 15 15 15 15 16 17 17 18 19 21 22 23 22 21 21 20 20 20 20 20 21 21 21 21 21 21 22 22 21 21 20 19 19 21 23 24 24 24 23 22 22 22 23
10 10 10 10 11 11 12 12 12 12 12 12 12 12 12 12 12 12 12 12 13 13 13 14 14 14 14 14 14 14 14 14 15 15 16 15 15 14 14 14 14 14 13 13 12 12 12 12 12 14 15 15 16 18 20 22 21 21 20 20 20 20 20 21 21 22 21 21 21 21 21 20 20 19 18 18 20 22 24 24 24 23 22 22 22 23
Wind_Direction
205 213 221 227 228 227 228 231 230 227 226 226 224 223 224 228 233 236 239 244 252 260 265 265 262 257 253 251 254 260 266 271 275 279 281 283 284 285 287 289 290 290 289 288 286 284 282 281 280 279 279 279 280 280 281 282 283 283 284 284 285 285 284 283 282 282 281 280 280 280 278 279 280 281 281 281 282 282 283 284 284 284 283 281 280 281
202 212 219 226 228 227 225 230 230 228 225 226 226 226 227 230 234 238 243 249 255 260 262 259 255 252 253 256 259 263 268 272 276 279 282 284 286 288 290 292 293 293 292 290 287 285 283 282 281 281 281 280 280 281 281 281 282 282 283 283 283 282 282 281 280 280 279 279 279 279 279 279 279 280 280 281 281 281 282 282 282 282 281 281 280 280
192 202 211 221 225 224 223 226 229 229 228 229 230 231 232 234 238 243 248 253 256 257 254 251 248 249 253 257 262 267 272 276 278 281 283 285 288 290 292 294 296 296 294 292 289 287 286 285 284 284 283 283 283 282 282 282 282 282 282 281 280 279 279 278 277 277 276 276 276 276 277 278 279 279 280 281 281 281 281 282 281 281 280 281 280 280
189 193 202 210 216 220 223 226 228 230 231 232 234 236 238 240 242 246 249 251 250 247 244 242 244 249 255 261 268 275 281 280 280 282 284 287 289 292 295 297 298 297 295 293 291 289 288 287 286 285 284 284 283 282 282 282 281 281 281 281 280 279 279 278 277 277 276 276 276 276 276 277 278 278 279 280 281 281 282 283 282 281 281 281 281 281
187 191 197 200 204 212 223 229 231 232 232 233 234 237 239 240 242 243 243 239 235 233 233 235 241 248 258 267 275 282 285 283 282 282 285 287 290 294 297 300 300 299 296 293 291 290 288 287 286 284 283 282 281 281 281 281 282 283 283 283 283 283 282 282 281 280 279 278 278 278 278 278 278 278 279 280 280 281 281 282 283 282 282 282 282 281
182 189 196 197 199 206 218 226 229 229 228 228 229 231 232 233 233 231 228 225 225 227 229 232 238 248 261 272 279 282 282 279 279 280 282 284 288 294 299 300 299 297 295 292 290 289 287 286 285 283 281 281 281 281 281 283 285 287 287 287 286 285 284 283 282 281 281 280 280 280 279 278 278 278 279 280 280 281 281 282 282 282 282 282 282 282
175 186 194 195 199 206 212 217 220 219 216 215 216 218 220 222 223 224 225 225 227 230 233 237 246 258 269 277 279 277 275 271 269 270 271 276 282 290 295 298 297 296 294 290 288 287 286 286 285 283 282 282 283 283 284 286 288 288 288 287 285 285 284 283 282 281 280 280 279 279 279 278 278 278 279 279 280 281 281 281 281 281 281 281 282 282
162 174 185 188 192 196 198 201 204 205 205 205 205 207 212 219 224 230 233 234 236 239 246 253 262 271 275 276 274 270 267 264 264 266 269 275 282 289 294 296 297 296 293 290 288 288 288 288 287 286 285 285 286 287 288 289 289 288 287 286 285 284 283 282 281 281 280 279 279 279 279 278 278 278 279 279 280 281 281 281 281 281 281 281 281 281
152 160 174 181 183 183 185 190 196 200 204 207 210 213 220 230 236 240 244 245 246 250 256 262 268 273 274 271 265 261 260 261 264 269 275 282 289 294 296 297 296 294 291 291 290 291 291 291 290 289 289 290 291 291 290 290 290 288 286 285 284 283 282 282 281 280 280 280 280 280 279 279 280 280 280 280 280 280 280 281 281 281 281 281 281 281
155 160 170 179 183 187 190 196 202 207 216 223 230 236 241 246 249 252 254 254 256 258 261 264 268 270 269 263 257 256 258 262 267 273 281 289 294 296 293 289 283 281 284 287 289 290 290 291 292 293 293 294 294 294 291 291 289 286 285 283 283 282 282 282 282 282 282 282 282 282 281 281 281 281 280 280 280 280 280 280 280 281 281 281 282 282
154 167 175 183 192 202 210 216 220 226 232 239 244 247 250 252 254 256 257 260 263 264 263 265 265 264 260 255 255 258 263 268 273 279 286 292 295 292 285 276 271 271 274 276 278 279 283 286 288 290 291 291 291 289 287 285 284 282 281 281 280 281 282 282 283 283 284 284 284 283 283 282 282 282 281 281 281 281 280 280 280 281 281 281 281 282
152 173 187 198 208 219 229 234 238 240 243 246 248 251 254 255 256 256 255 259 262 263 261 260 259 257 253 253 259 266 272 278 283 290 295 299 299 294 285 276 272 272 272 272 273 275 279 282 283 283 283 282 281 279 278 277 276 275 275 276 278 280 283 285 285 286 287 287 286 286 285 284 283 283 282 282 282 281 281 280 281 281 281 281 281 281
175 195 211 220 227 235 243 249 254 256 253 250 247 248 253 257 257 255 254 257 260 260 255 252 252 254 258 264 271 278 284 289 294 300 305 307 307 303 295 289 284 281 280 279 279 280 282 283 281 279 277 275 273 272 271 270 270 270 271 276 281 285 288 289 290 290 290 289 288 287 286 285 285 284 284 283 283 282 282 281 281 281 281 281 281 281
236 244 249 257 258 258 260 263 264 263 259 254 251 253 258 260 256 251 249 252 255 257 255 254 256 262 270 276 282 287 293 298 304 308 311 311 311 309 306 301 297 294 293 292 292 291 293 292 287 281 275 271 268 267 267 266 267 270 276 285 290 292 293 293 293 293 292 291 290 289 288 287 286 286 285 285 284 283 283 282 282 281 281 281 282 282
292 287 287 285 280 276 273 272 271 269 265 258 253 252 256 257 255 251 251 253 258 263 267 270 273 276 278 280 286 293 298 304 309 312 312 311 311 310 310 308 305 304 304 305 306 307 310 308 302 293 280 272 268 266 267 269 273 279 288 294 296 296 295 295 295 295 294 293 292 291 290 288 287 287 287 287 286 285 285 284 283 283 283 282 282 282
296 287 281 277 275 274 273 270 266 263 261 256 254 259 265 266 265 265 266 268 274 280 285 286 287 286 283 282 288 297 304 308 311 312 312 310 309 309 311 311 311 311 311 313 317 321 326 323 316 305 294 283 276 274 276 279 285 291 296 297 297 296 297 297 297 296 296 294 293 292 290 289 288 288 287 287 286 286 285 285 284 283 283 282 282 282
287 276 269 267 265 262 253 241 226 241 269 278 279 278 273 271 273 275 276 279 285 290 291 291 292 291 289 290 294 301 309 312 312 312 311 309 308 308 311 313 313 314 315 317 321 327 332 330 325 317 307 298 293 291 292 294 296 297 297 296 296 296 297 297 297 297 296 295 294 293 291 290 289 288 287 287 286 285 284 284 283 282 282 281 281 281
282 269 260 264 268 253 194 99 326 311 304 297 292 288 285 282 283 285 287 289 292 295 294 292 289 287 290 294 299 306 311 312 312 312 310 308 307 307 310 313 313 313 315 317 322 328 331 330 327 322 316 310 306 305 302 300 299 297 295 295 295 295 296 296 296 296 296 296 294 293 292 291 290 288 287 286 285 284 284 283 282 281 280 280 279 278
36 51 57 49 36 21 355 341 335 328 322 317 312 305 298 295 294 294 294 295 297 297 298 295 290 287 289 292 299 306 308 309 311 312 310 307 306 307 309 311 312 312 313 317 322 327 329 327 324 321 317 314 310 308 305 302 299 295 294 294 294 294 294 294 294 295 295 294 293 292 291 290 289 288 287 286 284 283 282 281 281 280 279 278 277 277
25 12 1 353 347 342 337 328 322 321 321 316 313 311 308 303 300 298 298 299 299 300 300 298 293 290 292 294 298 301 303 305 309 311 309 305 303 305 307 310 310 310 312 316 320 324 324 323 321 318 315 312 309 306 304 301 298 295 293 292 292 292 292 292 292 292 292 292 291 291 291 290 289 287 286 285 283 281 281 280 280 281 280 280 279 278
341 334 326 322 325 327 327 322 317 314 312 311 311 311 309 307 305 302 301 301 302 303 303 299 296 295 296 295 295 297 300 303 309 311 308 303 300 301 305 309 311 311 311 314 317 320 320 318 316 314 312 310 308 305 303 299 295 292 290 289 289 289 289 290 290 290 291 290 290 290 290 289 289 287 286 285 283 282 282 281 281 281 281 281 280 280
324 320 318 317 317 319 320 318 316 313 311 311 312 313 311 309 305 302 300 300 300 299 300 299 298 299 298 297 296 298 301 302 307 310 309 302 298 300 306 312 313 311 309 310 314 316 315 314 312 311 310 309 307 304 300 295 291 288 287 286 286 286 287 287 287 289 291 291 291 291 290 290 288 287 286 285 284 283 283 282 282 281 281 280 280 280
318 317 319 320 319 318 318 317 316 315 314 313 311 310 308 304 301 298 296 296 296 298 300 302 302 302 301 301 301 302 301 302 305 309 309 299 296 301 309 314 313 309 306 308 311 313 313 312 311 310 310 309 306 302 296 291 287 285 284 283 283 283 283 284 286 288 291 292 293 292 291 291 289 288 288 287 286 285 285 284 284 283 282 282 281 280
332 331 331 331 328 325 322 321 320 319 318 316 313 310 310 307 304 301 299 298 299 301 303 305 305 304 303 303 304 303 302 305 311 315 311 296 294 301 308 312 312 309 307 308 311 313 312 310 310 310 311 309 306 300 294 287 283 282 281 280 280 280 281 283 286 289 291 293 293 293 292 291 290 290 290 289 288 288 287 287 286 285 285 284 283 282
350 349 347 344 339 333 329 326 324 321 318 315 313 311 310 308 305 301 298 296 296 297 299 301 301 301 302 303 302 301 305 311 317 319 311 299 295 299 305 309 310 309 308 309 310 311 310 309 309 310 312 310 305 298 290 283 279 277 277 277 276 277 280 283 288 291 294 294 295 294 293 293 292 292 291 290 290 290 289 289 288 288 287 286 285 283
360 359 355 348 339 331 326 321 318 316 312 310 309 309 307 305 302 297 291 289 290 292 294 295 294 295 298 299 300 301 307 313 316 314 307 300 297 298 301 305 308 308 307 308 309 309 309 307 308 310 312 310 304 293 284 275 271 270 271 271 273 276 282 287 291 294 295 295 295 294 293 293 293 293 294 293 293 292 292 291 291 290 289 288 286 285
332 329 325 321 318 317 316 312 309 306 304 302 302 302 302 301 300 298 292 290 291 292 290 287 288 292 296 296 297 300 305 308 309 306 302 296 293 294 298 303 307 308 309 309 308 307 306 304 305 307 310 308 299 283 269 259 255 257 262 266 273 280 287 292 296 297 297 296 295 295 295 294 295 295 296 296 295 294 294 293 293 292 291 290 288 286
297 298 299 301 303 303 302 299 297 295 294 294 293 292 291 290 289 288 285 287 289 290 286 283 286 291 294 295 296 299 302 303 301 300 299 293 287 287 294 301 307 310 312 311 310 308 306 303 303 305 305 299 280 261 250 246 248 254 262 272 280 287 293 297 299 300 299 299 298 297 296 296 296 296 296 297 296 296 295 295 295 294 293 291 289 287
291 292 294 297 300 301 300 297 293 289 286 286 286 285 281 277 275 275 277 279 282 283 282 280 282 285 290 294 296 298 299 298 298 297 296 290 284 285 294 302 308 313 317 316 314 311 308 305 303 298 285 266 249 244 246 251 259 267 276 283 290 295 299 302 304 304 303 302 300 298 297 297 297 296 297 297 297 297 296 297 297 296 295 292 290 289
292 293 295 299 303 305 305 302 297 290 284 280 278 275 271 265 263 265 268 271 273 274 274 276 278 281 286 292 296 298 297 297 298 296 292 289 288 291 298 304 309 313 319 321 319 315 310 308 300 275 246 241 247 254 262 272 280 286 292 297 301 303 306 307 307 306 305 303 300 299 298 297 297 297 297 297 297 297 297 298 298 297 295 293 292 291
299 301 304 306 309 310 310 306 301 293 285 279 273 268 263 258 256 256 259 261 263 264 266 269 271 274 277 282 287 291 291 295 296 293 292 293 292 292 298 302 305 308 314 318 319 316 315 310 298 259 253 268 277 282 285 290 295 300 304 306 307 307 308 309 308 305 304 302 301 299 299 298 298 298 299 299 299 299 299 299 298 297 296 295 294 294
304 306 308 310 311 312 311 308 303 297 292 285 278 271 265 260 257 255 255 256 257 260 264 266 268 268 268 266 264 264 272 281 285 286 289 289 287 288 292 295 298 301 304 304 298 292 297 299 294 291 291 292 294 295 298 300 303 306 309 308 307 307 309 309 307 305 304 303 303 302 301 301 301 301 302 302 301 301 300 299 298 296 295 295 295 294
303 305 307 309 310 310 310 308 305 303 301 297 292 284 277 270 265 262 260 259 260 262 266 269 270 269 267 264 263 264 268 272 275 278 280 280 281 283 286 288 291 294 297 295 288 280 275 281 289 295 297 298 297 298 300 303 305 307 308 308 307 307 309 310 309 307 306 306 306 305 305 305 306 306 305 305 304 304 302 300 298 295 294 294 293 293
300 303 305 307 307 307 306 305 305 306 306 304 302 299 292 283 275 270 268 267 266 266 267 269 271 270 267 265 265 265 267 269 269 270 270 271 273 277 282 284 286 289 292 291 288 282 279 281 288 295 299 300 299 299 300 303 306 308 309 308 307 308 309 310 310 310 309 309 309 308 309 309 310 309 308 308 307 306 304 302 299 295 292 291 291 292
299 301 303 305 305 305 303 301 303 305 305 304 305 305 303 293 284 278 276 273 271 270 268 267 267 267 267 266 266 267 267 267 267 265 263 264 268 274 278 279 281 283 286 286 286 286 285 285 288 294 299 302 302 301 301 304 307 309 307 306 306 307 309 310 311 311 311 310 309 309 310 311 311 310 309 309 308 306 304 300 297 294 291 290 289 289
299 301 302 303 303 302 299 296 296 297 297 294 295 297 298 292 283 277 275 274 272 270 268 267 265 265 265 266 268 269 269 270 269 266 263 262 265 270 273 275 276 277 278 279 281 282 284 287 289 292 295 298 301 302 304 306 308 308 306 306 307 308 309 310 311 311 310 309 308 308 308 309 308 307 307 307 306 304 300 297 296 295 294 293 291 289
298 299 300 300 300 297 293 288 286 286 285 281 283 286 288 286 281 277 273 271 270 269 269 268 268 268 268 269 270 272 274 275 274 271 267 264 264 265 267 269 271 271 270 271 275 278 281 285 289 290 290 290 292 298 303 307 308 308 306 307 308 308 308 309 310 310 309 307 305 305 305 305 304 304 304 304 303 301 299 298 298 299 299 298 296 293
296 296 297 297 296 293 288 283 281 280 279 278 281 283 285 286 286 284 281 278 276 276 275 274 273 272 272 273 274 275 277 279 279 278 274 269 265 264 264 266 267 267 265 265 268 272 276 279 284 288 288 287 288 291 297 303 306 306 306 307 307 306 306 308 309 308 305 303 301 301 301 300 301 301 302 302 301 301 300 300 302 303 303 302 300 297
295 295 295 295 293 291 288 285 283 282 281 280 281 283 285 287 289 289 287 286 284 283 282 280 279 278 277 278 279 280 281 283 283 282 279 274 270 267 266 266 266 266 266 265 265 266 267 269 273 278 284 288 290 292 294 297 300 302 304 306 306 304 304 306 305 303 300 298 298 297 298 298 299 299 300 300 299 299 299 300 301 302 302 302 301 300
298 297 297 295 293 291 290 288 287 286 285 283 283 286 288 291 291 290 289 288 287 286 285 286 286 286 285 285 285 286 285 285 284 282 280 277 273 271 269 268 268 268 268 267 265 263 262 264 267 271 276 281 286 290 293 293 294 297 301 303 303 302 302 303 301 299 297 296 295 296 297 298 298 298 298 297 297 296 296 297 297 298 299 297 296 296
303 300 297 294 292 292 291 290 291 290 288 288 289 292 295 297 299 299 298 297 296 297 300 303 302 299 298 298 295 292 289 287 285 283 281 278 275 271 269 268 269 270 269 267 265 263 262 263 266 269 272 276 281 284 286 287 290 292 295 294 294 296 298 299 298 297 296 295 295 295 296 296 296 296 295 295 294 294 294 294 294 295 295 294 292 290
301 296 292 292 293 293 291 291 290 288 287 288 290 293 298 302 305 307 310 311 312 313 315 314 311 308 306 303 301 297 294 291 289 285 282 279 275 272 270 269 270 271 270 268 265 263 263 263 265 267 270 274 278 281 283 285 287 288 288 288 291 295 297 296 296 295 295 294 294 294 294 294 294 294 294 294 293 293 293 293 292 291 290 289 288 286
292 289 289 290 292 293 292 290 287 285 285 287 290 295 300 304 307 309 311 311 311 312 312 312 310 308 305 302 301 301 299 296 292 288 284 281 278 275 273 271 272 272 272 269 267 265 266 266 265 266 269 271 274 277 280 283 286 287 286 286 289 292 294 294 295 296 295 293 293 293 293 292 293 293 294 293 293 292 292 290 289 287 286 285 284 283
287 287 288 290 290 291 291 289 289 289 290 292 294 297 300 303 305 306 307 306 306 308 309 310 309 306 302 300 300 303 303 300 296 292 288 285 282 279 277 275 274 274 274 271 268 267 269 269 268 268 270 271 272 273 277 281 284 285 285 285 285 284 284 288 292 295 294 292 292 291 291 292 293 294 293 293 292 291 290 289 288 286 285 284 283 282
288 289 289 288 288 288 290 290 291 292 293 294 296 298 299 301 302 304 304 303 304 305 305 307 306 302 298 298 300 303 304 303 301 298 294 292 288 285 284 282 280 279 277 275 273 271 270 269 270 273 274 273 271 271 273 277 281 283 284 284 283 281 280 283 287 289 290 290 290 290 291 293 294 294 293 292 291 289 288 286 285 285 285 283 281 280
289 288 287 286 286 287 288 289 292 294 295 296 297 298 299 301 302 303 302 302 302 302 303 304 300 295 293 296 300 302 302 302 300 300 300 299 298 296 295 293 290 287 283 280 278 276 272 270 271 274 276 276 274 272 271 273 277 280 282 283 284 283 283 283 284 284 285 286 287 289 292 294 293 291 289 289 289 288 286 284 282 282 282 282 280 278
285 284 285 286 287 288 289 291 294 296 297 298 298 298 299 301 302 303 302 302 301 300 300 298 294 290 289 292 295 297 297 297 298 299 300 302 304 304 303 302 298 294 289 285 282 279 275 274 273 272 272 273 275 275 274 274 274 275 279 281 283 283 283 282 283 283 283 283 284 287 291 293 292 289 287 288 288 287 287 285 283 282 282 281 280 279
283 284 285 287 288 289 290 293 295 297 297 297 298 298 298 300 301 301 301 301 300 298 296 293 290 288 287 288 290 291 292 293 293 295 297 299 301 303 304 303 301 296 292 289 285 282 279 277 274 271 267 266 267 272 274 274 273 274 276 278 280 280 280 281 283 284 283 282 284 286 288 287 285 284 285 287 287 287 287 287 286 285 284 284 283 282
283 284 286 287 289 290 292 293 295 295 295 296 296 297 297 299 298 297 298 299 298 295 292 290 288 286 286 286 287 289 290 289 290 291 292 294 296 297 299 299 299 296 294 291 288 285 283 280 276 271 265 261 260 264 269 271 272 273 274 275 276 276 277 280 283 284 284 284 285 286 287 284 282 281 282 283 285 287 288 289 289 288 287 285 284 283
282 283 284 287 289 290 291 292 293 293 293 293 293 293 293 295 295 295 296 296 295 292 289 286 285 284 284 285 286 287 287 287 288 288 290 292 294 295 296 297 298 298 296 294 292 290 287 285 282 277 270 262 258 258 262 266 271 273 274 274 274 275 276 279 282 285 285 286 286 287 287 285 284 282 281 282 285 288 290 290 290 288 287 286 285 283
284 284 284 286 288 288 289 289 289 288 288 287 287 288 289 290 291 292 293 292 291 289 286 285 282 281 281 282 283 284 285 285 285 286 287 290 292 294 294 295 297 297 297 297 297 297 296 294 293 290 283 271 261 257 258 263 268 272 274 275 275 276 276 279 282 284 286 286 287 287 287 286 285 284 283 284 286 289 289 289 289 288 288 287 287 285
Height
802 803 804 805 805 806 806 807 808 808 809 809 810 811 812 813 813 814 815 816 816 817 817 817 818 818 819 819 820 820 820 820 820 820 820 820 819 819 819 818 818 818 818 818 817 817 817 817 817 817 816 816 816 816 816 816 815 815 815 815 815 814 814 814 814 815 815 815 815 815 815 814 814 814 814 814 814 814 814 813 813 813 813 813 813 813
802 803 804 805 805 806 806 806 807 808 808 809 810 810 811 812 812 813 814 815 815 816 816 816 817 818 818 819 819 820 820 820 820 819 819 819 818 818 818 817 817 817 817 817 816 816 816 816 816 815 815 815 815 815 815 815 814 814 814 814 814 814 813 813 813 814 814 814 814 814 813 813 813 813 813 812 812 812 812 812 812 812 812 812 812 812
802 803 804 804 805 805 806 806 806 807 808 809 809 810 810 811 812 813 813 814 814 815 815 815 816 817 818 818 819 819 819 819 819 819 818 818 817 817 817 816 816 816 816 816 815 815 815 815 815 815 814 814 814 814 814 814 813 813 813 813 813 813 813 813 813 813 813 812 812 812 812 812 812 811 811 811 811 811 811 811 811 811 811 811 810 810
802 803 804 804 805 805 805 806 806 807 808 808 809 810 810 811 811 812 813 813 814 814 814 815 816 816 817 818 818 818 818 818 818 818 817 817 816 816 816 815 815 815 815 815 815 814 814 814 814 813 813 813 813 813 813 813 812 812 812 812 812 812 812 812 811 811 811 811 811 811 810 810 810 810 810 810 810 810 810 810 809 809 809 809 809 809
802 803 803 804 805 805 805 806 807 807 808 808 809 809 810 810 811 811 812 812 813 813 814 815 815 816 816 817 817 817 817 817 817 817 816 816 815 815 815 815 814 814 814 814 814 813 813 813 813 812 812 812 812 812 812 812 812 811 811 811 811 811 810 810 810 810 810 810 810 810 809 809 809 809 808 808 808 808 808 808 808 808 808 808 808 808
803 803 803 804 805 805 806 806 807 807 808 808 809 809 810 810 810 811 812 812 813 813 814 814 815 815 815 816 816 816 816 816 816 816 815 815 815 814 814 813 813 813 813 813 813 812 812 812 812 811 811 811 811 811 811 811 810 810 810 810 810 810 809 809 809 809 809 809 808 808 808 808 808 807 807 807 807 807 807 807 807 807 807 806 806 806
803 803 804 804 805 806 806 807 807 808 808 808 809 809 810 810 811 811 812 812 813 813 813 813 814 814 814 815 815 815 815 815 815 815 814 814 814 813 813 812 812 812 812 812 812 812 811 811 811 811 810 810 810 810 810 810 809 809 809 809 808 808 808 808 808 808 807 807 807 807 807 806 806 806 806 806 805 805 805 805 805 805 805 805 805 805
803 804 805 805 805 806 807 807 808 808 808 809 809 809 810 810 811 811 812 812 812 812 812 812 813 813 813 814 814 814 814 814 814 814 814 813 813 812 812 811 811 811 811 811 811 811 810 810 810 810 810 809 809 809 809 808 808 808 807 807 807 807 807 806 806 806 806 806 806 805 805 805 805 805 805 804 804 804 804 804 804 804 804 804 804 804
804 805 805 806 806 807 807 808 808 808 809 809 809 810 810 811 811 812 812 812 812 812 812 811 812 812 813 813 814 814 814 813 813 813 813 812 812 811 811 810 810 810 810 810 810 810 809 809 809 809 808 808 808 807 807 807 807 806 806 806 806 805 805 805 805 805 805 805 805 804 804 804 804 803 803 803 803 803 803 803 803 803 803 802 802 802
804 805 806 806 807 807 808 808 809 809 809 809 810 810 810 811 811 811 811 811 811 811 811 811 811 812 812 813 813 813 813 813 812 812 812 811 811 810 810 810 809 809 809 809 809 808 808 808 807 807 807 807 806 806 806 805 805 805 805 805 805 805 804 804 804 804 804 803 803 803 803 802 802 802 802 802 802 802 801 801 801 801 801 801 801 801
805 806 806 807 807 808 808 809 809 809 809 810 810 810 810 811 811 811 811 810 810 810 810 810 811 811 812 812 812 812 812 812 811 811 811 810 810 809 809 808 808 808 807 807 807 807 806 806 806 805 805 805 805 805 804 804 804 804 804 803 803 803 803 803 803 802 802 802 802 801 801 801 801 801 801 801 800 800 800 800 800 800 800 800 800 799
805 806 807 807 807 808 808 809 809 809 809 810 810 810 810 810 810 810 810 810 810 810 810 810 810 811 811 811 811 811 811 810 810 810 809 809 808 808 807 807 806 806 806 806 805 805 805 805 804 804 804 803 803 803 803 803 802 802 802 802 802 802 802 802 801 801 801 801 800 800 800 800 800 800 800 800 799 799 799 799 799 798 798 798 798 798
806 806 806 807 807 808 808 808 809 809 809 809 809 809 809 809 809 810 810 810 810 810 810 810 810 810 810 810 810 810 810 809 809 808 808 807 807 806 806 805 805 805 805 804 804 804 804 803 803 802 802 802 802 802 801 801 801 801 801 801 801 801 800 800 800 800 800 800 799 799 799 799 799 799 798 798 798 798 798 797 797 797 797 796 796 796
805 806 806 807 807 807 807 808 808 808 808 808 808 808 809 809 809 809 809 809 809 809 809 809 810 810 810 810 809 809 809 808 807 807 806 806 805 805 805 804 804 804 803 803 803 802 802 802 801 801 801 801 800 800 800 800 800 800 800 800 800 800 799 799 799 799 799 798 798 798 798 798 797 797 797 797 796 796 796 796 795 795 795 795 795 794
806 806 806 806 807 807 807 807 808 808 808 808 808 808 809 809 809 809 809 809 809 809 809 809 809 809 809 809 809 808 808 807 806 805 805 805 804 804 804 803 802 802 802 802 801 801 801 800 800 800 800 800 800 800 799 799 799 799 799 799 799 798 798 798 798 797 797 797 797 797 796 796 796 796 795 795 795 795 795 794 794 794 793 793 793 792
806 806 807 807 807 807 807 808 808 808 808 808 808 809 809 809 809 809 809 808 808 808 808 808 808 808 808 808 808 807 807 806 805 805 804 803 803 803 803 802 801 801 801 800 800 800 800 800 799 799 799 799 799 799 798 798 798 798 798 797 797 797 797 797 796 796 796 796 795 795 795 795 795 794 794 794 793 793 793 792 792 792 791 791 791 791
807 807 807 807 807 808 808 808 808 808 808 808 808 808 808 808 808 808 808 808 808 808 808 807 807 807 807 807 807 807 806 805 805 804 803 802 802 802 802 801 800 800 799 799 799 799 799 799 798 798 798 798 798 797 797 797 797 796 796 796 796 796 796 796 795 795 795 795 794 794 794 793 793 793 792 792 792 791 791 791 790 790 790 790 789 789
807 807 808 808 808 808 808 808 808 808 808 808 808 808 808 808 808 808 807 807 807 807 807 807 807 806 806 806 806 806 805 805 804 803 802 801 800 800 800 800 800 799 798 798 798 798 798 797 797 797 797 797 796 796 796 796 795 795 795 795 795 795 795 795 794 794 794 793 793 793 792 792 791 791 791 790 790 790 790 789 789 789 789 788 788 788
808 808 808 808 808 808 808 808 808 808 808 808 808 808 807 807 807 807 807 806 806 806 806 806 806 806 805 805 805 805 805 804 803 802 801 800 799 799 800 799 799 798 797 797 797 797 797 796 796 796 796 795 795 795 795 795 794 794 794 794 794 794 794 794 793 793 792 792 792 791 791 791 790 790 790 789 789 789 788 788 788 787 787 787 786 786
808 808 808 808 808 808 808 808 808 807 807 807 807 807 807 807 807 806 806 806 806 805 805 805 805 805 805 805 804 804 804 803 803 801 800 799 798 798 798 798 797 797 796 795 795 795 795 795 795 795 795 794 794 794 793 793 793 793 793 793 793 793 793 792 792 792 791 791 791 790 790 790 789 789 788 788 788 787 787 786 786 786 785 785 785 784
808 808 808 808 808 808 808 807 807 807 807 807 807 807 806 806 806 806 805 805 805 805 805 805 805 804 804 804 803 803 803 803 802 801 800 798 797 796 797 797 796 795 795 794 794 794 794 794 794 793 793 793 792 792 792 792 792 792 792 792 792 792 792 791 791 791 790 790 790 789 789 788 788 787 787 786 786 786 785 785 785 784 784 783 783 783
808 808 808 808 808 808 807 807 807 807 807 806 806 806 806 806 805 805 805 805 805 804 804 804 804 803 803 802 802 802 802 802 801 800 799 797 796 795 796 796 795 795 794 793 793 793 793 792 792 792 792 791 791 791 791 791 791 791 791 791 791 791 790 790 790 790 789 789 788 788 787 787 786 786 785 785 785 784 784 783 783 782 782 782 781 781
808 808 807 807 807 807 807 807 807 806 806 806 806 805 805 805 805 805 804 804 804 804 803 803 803 802 802 801 801 801 801 801 800 800 799 797 795 794 795 795 795 794 793 792 792 791 791 791 790 790 790 790 790 790 790 789 790 790 790 790 790 790 789 789 789 788 788 787 787 786 786 785 785 784 784 783 783 782 782 781 781 780 780 780 779 779
807 807 807 807 807 807 806 806 806 806 805 805 805 805 805 805 804 804 804 803 803 803 803 802 802 801 801 800 800 800 800 800 800 799 799 797 795 794 794 794 794 793 791 791 791 790 790 789 789 789 789 789 789 788 788 788 788 789 789 789 789 788 788 788 787 787 786 786 785 785 784 784 783 783 782 782 781 781 780 780 779 779 778 778 777 777
807 807 807 807 806 806 806 806 806 805 805 805 805 804 804 804 803 803 803 803 802 802 802 801 801 800 800 800 799 799 799 799 799 798 798 797 795 794 794 794 793 792 790 790 790 790 789 788 787 787 787 787 787 787 787 787 787 787 787 787 787 787 787 786 786 785 785 784 783 783 782 782 781 781 780 780 780 779 779 778 777 777 776 776 775 775
807 807 807 806 806 806 806 806 805 805 805 804 804 804 803 803 803 802 802 802 802 802 801 801 800 800 800 799 799 798 798 798 798 798 797 797 795 794 793 793 793 792 790 789 789 789 788 787 786 786 786 786 786 786 786 786 786 786 786 786 786 786 785 785 784 783 783 782 782 781 781 780 780 779 779 778 778 777 777 776 775 775 775 774 773 773
806 806 806 806 805 805 805 805 804 804 804 804 804 803 803 802 802 801 801 801 801 801 801 800 800 799 799 798 798 798 797 797 797 797 797 796 795 794 793 793 793 792 790 789 788 788 788 786 785 785 785 785 785 785 785 785 785 785 785 785 785 784 783 783 782 782 781 780 780 780 779 779 778 778 777 776 776 775 775 775 774 773 773 772 771 770
805 805 805 805 805 804 804 803 803 803 803 803 803 803 802 802 801 801 800 800 801 800 800 800 800 799 798 798 797 797 797 796 796 796 796 795 795 794 793 793 792 792 791 789 788 787 787 785 785 784 784 784 784 784 784 784 784 784 784 783 783 782 782 781 780 780 779 779 778 778 777 777 776 776 775 775 774 774 773 773 772 771 771 770 769 768
805 805 804 804 804 803 803 802 802 801 801 801 801 801 801 801 800 800 800 800 800 800 800 799 799 799 798 798 797 796 796 796 795 795 795 795 794 793 793 793 792 792 791 789 787 785 785 784 784 783 783 783 783 783 783 783 783 782 782 781 781 780 780 779 779 778 777 777 776 776 776 775 775 774 774 773 773 772 771 771 770 770 769 768 767 766
804 803 803 803 802 802 801 800 800 800 800 800 800 800 799 799 799 799 799 799 799 799 799 799 799 798 798 798 797 796 795 795 795 795 795 794 794 793 793 793 792 792 792 790 788 785 783 782 782 782 782 782 782 782 781 781 781 780 780 780 779 778 778 777 777 776 776 775 775 775 774 774 773 772 772 771 771 770 770 769 769 768 767 766 765 765
802 802 801 801 801 800 800 799 799 798 798 798 798 798 798 797 797 797 798 798 798 798 798 798 798 798 798 797 797 796 795 794 795 795 795 794 794 793 793 793 792 792 792 792 790 787 784 782 781 781 781 781 781 780 780 780 779 779 778 777 777 776 776 775 775 775 774 774 773 773 772 772 771 770 770 770 769 769 768 768 767 766 765 765 764 763
801 801 800 800 800 799 799 798 798 797 797 797 797 796 796 796 796 796 796 796 796 796 796 796 796 796 797 797 796 795 795 794 794 795 795 794 793 793 793 792 792 792 792 792 792 790 787 783 781 780 780 780 779 779 778 778 777 776 776 775 775 774 774 774 774 773 772 772 771 771 770 770 769 769 768 768 767 767 766 766 765 765 764 763 762 761
800 800 799 799 798 798 797 797 797 796 796 796 796 795 795 795 795 795 795 795 795 795 795 795 795 795 795 795 795 795 794 794 794 795 794 794 793 792 792 792 791 791 790 790 790 790 788 785 781 779 778 778 777 777 776 776 775 775 775 774 773 773 772 772 772 771 770 770 769 769 768 768 767 767 766 766 765 765 765 764 764 764 763 762 761 760
799 799 798 798 797 797 796 796 796 796 795 795 795 795 795 795 794 794 794 795 795 795 795 795 795 795 794 794 794 793 793 793 794 794 794 793 792 792 791 791 790 790 790 789 789 788 786 785 782 780 777 775 775 775 775 774 774 773 773 772 772 771 770 770 770 769 768 768 767 767 766 766 765 765 765 764 764 763 763 762 762 762 762 761 760 759
798 798 797 797 796 796 796 795 795 795 795 795 794 794 794 794 794 794 794 794 794 794 794 794 794 794 794 793 793 792 792 792 793 793 793 792 792 791 790 790 789 789 789 788 787 787 785 783 782 780 778 775 773 772 773 773 772 772 771 771 770 770 769 769 768 767 766 766 765 765 764 764 764 763 763 762 762 761 761 761 760 760 760 760 759 758
797 797 796 796 795 795 795 795 795 795 794 794 794 794 794 793 793 793 793 793 793 793 793 793 793 793 793 792 792 791 790 790 791 791 791 791 790 790 789 788 788 788 788 787 786 785 785 783 781 780 779 776 773 771 770 771 771 770 770 769 769 768 767 767 766 766 765 764 764 763 763 762 762 761 761 760 760 760 760 759 759 759 758 757 757 756
796 796 795 795 795 795 794 794 794 794 794 794 793 793 793 793 793 793 793 793 793 793 792 792 792 792 791 791 790 790 789 789 789 790 790 789 789 789 788 787 786 786 786 786 785 785 784 782 781 779 778 777 774 772 770 769 769 769 768 767 767 766 766 765 765 765 764 763 762 761 761 761 760 760 759 759 759 758 758 757 757 756 755 755 755 754
795 795 795 794 794 794 794 794 793 793 793 793 793 793 792 792 792 792 792 792 792 791 791 791 790 790 790 790 789 788 788 788 787 787 787 787 787 787 786 785 785 785 785 785 784 784 783 782 780 778 777 775 774 772 771 769 768 767 766 765 765 765 764 764 764 763 763 762 761 760 760 760 759 758 758 757 757 756 755 755 754 754 753 753 752 751
794 794 794 794 794 793 793 793 793 793 793 793 792 792 792 791 791 791 791 790 790 790 790 789 789 789 788 788 787 787 786 786 786 785 785 785 785 785 785 784 783 783 783 783 783 782 782 780 779 778 776 774 773 771 770 770 769 767 765 764 764 763 763 763 763 762 761 761 760 759 758 758 757 757 756 755 755 755 754 753 752 752 751 750 750 749
794 793 793 793 793 793 793 792 792 792 792 792 791 791 791 791 790 790 790 789 789 789 788 788 787 787 786 786 785 785 785 785 784 784 784 784 783 783 783 782 782 781 781 781 781 780 780 779 778 777 776 774 773 771 770 769 768 767 766 765 763 761 761 762 761 761 760 760 759 758 757 756 756 755 755 754 753 753 752 751 750 750 750 749 748 747
793 793 793 792 792 792 792 792 792 791 791 791 791 790 790 790 789 789 788 788 788 787 787 787 786 785 785 785 784 784 783 783 783 782 782 782 782 781 781 781 780 780 780 779 779 778 778 777 776 775 775 774 772 770 769 768 767 767 766 765 762 761 760 760 760 759 759 758 757 757 756 755 754 754 753 752 752 751 750 750 749 748 748 747 747 746
793 792 792 792 792 791 791 791 791 791 791 790 790 790 789 789 788 788 787 787 786 786 786 785 785 784 783 783 782 782 782 781 781 781 781 780 780 780 780 779 779 778 778 778 777 776 776 776 775 774 773 772 771 770 767 766 765 765 765 764 762 760 759 758 758 758 757 756 756 755 755 754 753 752 751 750 750 749 748 748 747 746 746 745 745 744
792 792 792 791 791 791 790 790 790 790 790 790 789 789 789 788 788 787 787 786 786 785 785 785 784 783 782 782 781 781 780 780 780 780 779 779 779 778 778 778 777 777 777 776 775 775 774 774 773 772 771 771 770 769 766 765 764 763 763 763 762 760 758 756 755 756 756 755 754 754 753 752 751 750 749 748 747 747 746 745 745 745 744 743 742 741
791 791 791 790 790 790 790 790 790 789 789 789 788 788 788 787 787 787 786 786 785 785 784 784 783 782 782 781 780 780 779 779 779 778 778 778 777 777 776 776 776 775 775 775 774 773 773 772 771 770 770 770 769 767 765 763 762 761 761 761 760 760 758 755 755 754 754 753 752 752 751 750 750 748 747 746 745 745 744 743 742 742 741 741 740 739
790 790 790 790 790 790 789 789 789 789 788 788 787 787 787 787 786 786 785 785 784 784 783 783 782 782 780 780 779 779 778 778 777 777 777 776 776 776 775 775 775 774 774 773 772 772 771 770 769 769 768 768 767 765 764 762 761 760 759 759 758 758 756 755 754 753 752 751 750 750 750 749 748 747 745 744 743 742 741 741 740 739 738 738 737 737
790 790 789 789 789 789 788 788 788 788 787 787 786 786 786 786 785 785 785 784 784 783 782 782 782 781 780 779 778 778 777 776 776 775 775 775 775 774 774 774 773 773 772 771 771 770 770 769 768 767 767 766 765 763 762 761 760 758 757 756 756 755 754 753 753 752 751 750 749 748 747 747 746 745 744 742 741 740 739 739 738 737 736 735 735 734
789 789 788 788 788 788 788 787 787 787 786 786 785 785 785 785 785 784 784 783 783 782 781 781 780 780 779 778 778 777 776 775 775 774 774 773 773 773 772 772 771 771 770 770 769 769 768 767 766 766 765 764 762 760 759 759 758 757 756 755 754 754 752 751 750 750 750 749 747 746 746 745 745 743 742 740 739 737 737 736 736 735 735 734 733 732
788 788 788 787 787 787 787 786 786 786 785 785 785 784 784 784 784 783 782 782 782 781 781 780 780 779 778 777 777 776 775 775 774 773 772 772 772 771 771 770 770 770 769 768 767 766 765 765 764 764 763 762 760 758 756 756 756 755 755 754 753 752 750 749 748 748 747 746 745 745 744 744 743 741 740 738 737 735 734 734 734 733 733 732 732 731
787 787 787 786 786 786 786 785 785 785 785 784 784 783 783 783 783 782 782 781 781 780 780 779 778 778 777 776 775 775 774 773 772 772 771 771 770 770 769 769 768 768 767 766 765 764 763 762 761 761 761 760 759 757 755 754 754 753 753 752 751 750 749 747 746 746 745 745 744 743 743 742 741 740 739 737 735 733 732 731 731 731 731 730 730 729
786 786 786 785 785 785 785 785 784 784 784 783 783 782 782 781 781 781 780 780 780 779 779 778 777 776 775 775 774 773 773 772 771 770 770 769 769 769 768 767 767 766 765 764 763 762 761 760 759 758 758 757 756 755 754 752 751 751 751 750 749 748 747 745 744 744 744 743 742 741 741 740 740 739 738 736 734 731 730 729 729 728 728 728 728 727
785 785 785 785 784 784 784 784 783 783 782 782 782 781 781 780 780 780 780 779 779 778 777 777 776 775 774 773 773 772 771 770 770 769 768 768 768 767 767 766 765 765 764 763 762 761 760 759 757 755 755 755 754 754 752 751 750 749 749 747 747 746 745 744 743 742 742 741 740 740 739 739 738 737 736 735 733 731 728 727 726 725 725 726 725 724